Вернуться в каталог

COSMOS 2251 DEB

АктивенLEO
NORAD 33944·DEBRIS·🇷🇺 Russia

Запущен Jun 16, 1993 с Plesetsk Cosmodrome

Loading…

Ближайшие Пролёты (ближайшие 24 часа)

TLE

СвежийSource: Space-Track

Эпоха: Sep 14, 2026, 11:34 UTC

1 33944U 93036EZ  26257.48260808  .00000374  00000-0  12394-3 0  9998
2 33944  74.0406 161.3999 0113559 194.3848 340.9078 14.37767701919907

Отслеживайте COSMOS 2251 DEB в реальном времени с AllMySat

Download on the App Store